Latest Weather Observations for Thredbo Top Station

IDN60801

Issued at 9:22 am EST Wednesday 18 September 2019 (issued every 10 minutes, with the page automatically refreshed every 10 minutes)

About weather observations | Map of weather stations | Latest weather observations for NSW | Other Formats
Station Details ID: 071032 Name: THREDBO AWS Lat: -36.49 Lon: 148.29 Height: 1957.0 m
Data from the previous 72 hours. | See also: Recent months at Thredbo Top Station
Date/Time
EST
Temp
°C
App
Temp
°C
Dew
Point
°C
Rel
Hum
%
Delta-T
°C
Wind Press
QNH
hPa
Press
MSL
hPa
Rain since
9am
mm
Dir  Spd
km/h
Gust
km/h
Spd
kts
Gust
kts
18/09:00am -1.6 -5.1 -2.9 91 0.4 N 6 9 3 5 1028.1 1029.6 0.2
18/08:30am -2.4 -6.2 -3.4 93 0.3 N 7 11 4 6 1028.1 1029.6 0.2
18/08:00am -2.4 -6.5 -3.4 93 0.3 N 9 11 5 6 1028.0 1029.5 0.2
18/07:30am -4.0 -7.3 -4.8 94 0.1 N 4 6 2 3 1027.7 1029.2 0.2
18/07:00am -4.5 -8.8 -5.2 95 0.0 NW 9 11 5 6 1027.5 1029.0 0.2
18/06:30am -4.6 -7.2 -5.1 96 0.0 CALM 0 0 0 0 1027.3 1028.7 0.2
18/06:00am -4.9 -7.6 -5.7 94 0.1 CALM 0 0 0 0 1027.0 1028.5 0.2
18/05:30am -3.6 -6.1 -4.3 95 0.1 CALM 0 0 0 0 1026.9 1028.3 0.2
18/05:00am -3.1 -7.0 -4.2 92 0.2 SSW 7 11 4 6 1026.7 1028.1 0.2
18/04:30am -3.0 -7.2 -3.8 94 0.1 SSW 9 13 5 7 1026.5 1027.9 0.2
18/04:00am -3.3 -7.5 -3.8 96 0.0 SW 9 11 5 6 1026.5 1027.9 0.2
18/03:30am -2.6 -7.5 -3.1 96 0.1 SW 13 17 7 9 1026.4 1027.8 0.2
18/03:00am -3.0 -7.5 -3.4 97 0.0 SW 11 13 6 7 1026.5 1027.9 0.2
18/02:30am -3.1 -7.6 -3.5 97 0.0 SW 11 13 6 7 1026.7 1028.1 0.2
18/02:00am -3.1 -8.0 -3.5 97 0.0 SW 13 13 7 7 1026.8 1028.2 0.2
18/01:30am -3.8 -8.8 -4.2 97 0.0 SW 13 15 7 8 1026.9 1028.3 0.2
18/01:00am -4.5 -8.2 -4.9 97 -0.1 SW 6 11 3 6 1026.9 1028.3 0.2
18/12:30am -4.8 -8.8 -5.2 97 -0.1 NNW 7 15 4 8 1026.8 1028.2 0.0
18/12:00am -5.3 -11.2 -5.7 97 -0.1 NNW 17 19 9 10 1026.7 1028.1 0.0
 
Date/Time
EST
Temp
°C
App
Temp
°C
Dew
Point
°C
Rel
Hum
%
Delta-T
°C
Wind Press
QNH
hPa
Press
MSL
hPa
Rain since
9am
mm
Dir  Spd
km/h
Gust
km/h
Spd
kts
Gust
kts
17/11:30pm -3.8 -8.4 -4.1 98 -0.1 NNE 11 15 6 8 1027.1 1028.6 0.0
17/11:00pm -3.6 -7.8 -3.9 98 -0.1 N 9 11 5 6 1027.0 1028.5 0.0
17/10:30pm -3.5 -7.7 -3.8 98 -0.1 NNE 9 11 5 6 1027.0 1028.5 0.0
17/10:00pm -3.0 -7.5 -3.3 98 0.0 NE 11 15 6 8 1026.9 1028.3 0.0
17/09:30pm -3.4 -8.7 -3.7 98 -0.1 NNE 15 19 8 10 1026.9 1028.3 0.0
17/09:00pm -2.4 -7.2 -2.7 98 0.0 NNE 13 15 7 8 1026.7 1028.1 0.0
17/08:30pm -2.0 -6.4 -2.3 98 0.0 NE 11 17 6 9 1026.5 1027.9 0.0
17/08:00pm -2.1 -6.9 -2.4 98 0.0 NE 13 17 7 9 1026.3 1027.7 0.0
17/07:30pm -2.1 -6.9 -2.4 98 0.0 NE 13 17 7 9 1025.8 1027.2 0.0
17/07:00pm -1.6 -6.3 -1.9 98 0.0 NE 13 15 7 8 1025.7 1027.1 0.0
17/06:30pm -1.6 -6.3 -1.9 98 0.0 ENE 13 19 7 10 1025.4 1026.8 0.0
17/06:00pm -1.7 -5.7 -2.0 98 0.0 NE 9 13 5 7 1025.2 1026.6 0.0
17/05:30pm -1.5 -6.2 -1.8 98 0.0 ENE 13 17 7 9 1025.0 1026.3 0.0
17/05:00pm -1.6 -6.3 -1.9 98 0.0 NE 13 19 7 10 1024.8 1026.2 0.0
17/04:30pm -2.0 -7.5 -2.3 98 0.0 NE 17 20 9 11 1024.3 1025.7 0.0
17/04:00pm -1.7 -7.2 -2.0 98 0.0 NE 17 22 9 12 1024.3 1025.7 0.0
17/03:30pm -1.6 -7.5 -1.9 98 0.0 NE 19 24 10 13 1024.2 1025.5 0.0
17/03:00pm -1.5 -6.2 -1.8 98 0.0 ENE 13 22 7 12 1024.2 1025.5 0.0
17/02:30pm -1.6 -7.5 -1.9 98 0.0 ENE 19 24 10 13 1024.1 1025.4 0.0
17/02:00pm -1.9 -6.7 -2.2 98 0.0 ENE 13 19 7 10 1024.0 1025.3 0.0
17/01:30pm -1.9 -7.4 -2.2 98 0.0 ENE 17 22 9 12 1023.7 1025.0 0.0
17/01:00pm -2.1 -8.0 -2.4 98 0.0 NE 19 22 10 12 1023.6 1024.9 0.0
17/12:30pm -2.3 -8.2 -2.6 98 0.0 ENE 19 24 10 13 1023.5 1024.8 0.0
17/12:00pm -2.2 -7.4 -2.5 98 0.0 ENE 15 24 8 13 1023.5 1024.8 0.0
17/11:30am -2.2 -7.0 -2.5 98 0.0 ENE 13 20 7 11 1023.5 1024.8 0.0
17/11:00am -2.8 -7.7 -3.1 98 0.0 E 13 24 7 13 1023.4 1024.6 0.0
17/10:30am -3.4 -8.0 -3.8 97 0.0 ENE 11 15 6 8 1023.1 1024.4 0.0
17/10:00am -3.9 -8.5 -4.3 97 0.0 ENE 11 13 6 7 1023.0 1024.3 0.0
17/09:30am -4.4 -8.3 -4.8 97 -0.1 ENE 7 11 4 6 1022.9 1024.1 0.0
17/09:00am -5.0 -9.4 -5.4 97 -0.1 ENE 9 13 5 7 1022.8 1024.0 35.2
17/08:30am -5.8 -10.2 -6.2 97 -0.1 ENE 9 13 5 7 1022.4 1023.6 35.2
17/08:00am -6.0 -10.8 -6.4 97 -0.1 ENE 11 15 6 8 1022.0 1023.3 35.2
17/07:30am -6.6 -11.9 -7.0 97 -0.1 ENE 13 17 7 9 1021.3 1022.5 35.2
17/07:00am -7.0 -11.9 -7.4 97 -0.1 ENE 11 13 6 7 1020.8 1022.0 35.2
17/06:30am -7.3 -12.3 -7.7 97 -0.2 ENE 11 17 6 9 1020.5 1021.6 35.2
17/06:00am -8.0 -13.0 -8.4 97 -0.2 ENE 11 13 6 7 1019.9 1021.0 35.2
17/05:30am -8.0 -12.6 -8.4 97 -0.2 E 9 17 5 9 1019.9 1021.0 35.2
17/05:00am -7.4 -12.0 -7.8 97 -0.2 ESE 9 15 5 8 1019.5 1020.6 35.2
17/04:30am -7.1 -12.0 -7.5 97 -0.2 ESE 11 17 6 9 1019.5 1020.6 35.2
17/04:00am -6.9 -11.4 -7.3 97 -0.1 ESE 9 15 5 8 1019.4 1020.5 35.2
17/03:30am -7.0 -11.6 -7.4 97 -0.1 ESE 9 13 5 7 1019.3 1020.3 35.2
17/03:00am -6.7 -11.2 -7.1 97 -0.1 ESE 9 19 5 10 1019.4 1020.5 35.2
17/02:30am -6.7 -11.6 -7.1 97 -0.1 E 11 17 6 9 1019.4 1020.5 35.2
17/02:00am -6.0 -11.2 -6.4 97 -0.1 ESE 13 19 7 10 1019.3 1020.3 35.2
17/01:30am -5.8 -11.4 -6.2 97 -0.1 ESE 15 19 8 10 1019.4 1020.5 35.2
17/01:00am -5.6 -10.4 -6.0 97 -0.1 ESE 11 19 6 10 1019.5 1020.6 35.2
17/12:30am -5.5 -9.9 -5.9 97 -0.1 ESE 9 15 5 8 1019.7 1020.8 35.2
17/12:00am -5.5 -9.5 -5.9 97 -0.1 SE 7 15 4 8 1019.7 1020.8 35.2
 
Date/Time
EST
Temp
°C
App
Temp
°C
Dew
Point
°C
Rel
Hum
%
Delta-T
°C
Wind Press
QNH
hPa
Press
MSL
hPa
Rain since
9am
mm
Dir  Spd
km/h
Gust
km/h
Spd
kts
Gust
kts
16/11:30pm -5.8 -11.0 -6.2 97 -0.1 SSE 13 20 7 11 1019.5 1020.6 35.2
16/11:00pm -5.9 -10.3 -6.3 97 -0.1 SE 9 19 5 10 1019.4 1020.5 35.2
16/10:30pm -5.7 -10.9 -6.1 97 -0.1 SE 13 20 7 11 1019.6 1020.7 35.2
16/10:00pm -5.2 -10.0 -5.6 97 -0.1 SE 11 20 6 11 1019.4 1020.5 35.2
16/09:30pm -5.2 -11.5 -5.6 97 -0.1 SSE 19 28 10 15 1019.5 1020.6 35.2
16/09:00pm -4.6 -9.7 -5.0 97 -0.1 SSE 13 20 7 11 1019.4 1020.5 35.2
16/08:30pm -4.4 -9.1 -4.8 97 -0.1 SSE 11 22 6 12 1019.5 1020.6 35.2
16/08:00pm -4.3 -8.6 -4.7 97 -0.1 SE 9 13 5 7 1019.3 1020.3 35.2
16/07:30pm -4.1 -8.4 -4.5 97 0.0 ESE 9 15 5 8 1019.1 1020.2 35.2
16/07:00pm -3.8 -8.0 -4.2 97 0.0 SE 9 15 5 8 1018.7 1019.7 35.2
16/06:30pm -3.5 -7.3 -3.8 98 -0.1 SE 7 11 4 6 1018.3 1019.3 35.0
16/06:00pm -3.0 -7.1 -3.3 98 0.0 E 9 11 5 6 1017.9 1018.9 35.0
16/05:30pm -2.1 -5.2 -2.4 98 0.0 ESE 4 9 2 5 1017.6 1018.6 34.8
16/05:00pm 0.0 -3.2 -0.3 98 0.1 W 6 13 3 7 1017.4 1018.4 34.8
16/04:30pm 0.0 -4.5 -0.3 98 0.1 W 13 20 7 11 1017.2 1018.2 34.6
16/04:00pm 0.1 -5.7 -0.2 98 0.1 W 20 30 11 16 1017.0 1017.9 33.4
16/03:30pm 0.1 -6.5 -0.2 98 0.1 WNW 24 37 13 20 1016.0 1016.9 32.0
16/03:00pm 0.2 -8.4 -0.1 98 0.1 W 35 48 19 26 1015.9 1016.8 31.2
16/02:51pm 0.4 -7.3 0.1 98 0.1 W 30 48 16 26 1015.9 1016.8 30.2
16/02:30pm 0.5 -7.7 0.2 98 0.1 W 33 48 18 26 1016.1 1017.0 28.0
16/02:19pm 0.4 -6.9 0.1 98 0.1 W 28 46 15 25 1015.9 1016.8 27.8
16/02:00pm 0.9 -7.1 0.6 98 0.1 W 32 48 17 26 1016.4 1017.3 26.8
16/01:41pm 0.9 -6.3 0.6 98 0.1 W 28 46 15 25 1016.2 1017.2 25.8
16/01:30pm 1.0 -6.6 0.7 98 0.1 W 30 44 16 24 1016.4 1017.3 25.2
16/01:00pm 1.1 -7.4 0.8 98 0.1 W 35 56 19 30 1016.4 1017.3 23.0
16/12:34pm 1.1 -7.8 0.8 98 0.1 W 37 59 20 32 1016.6 1017.5 21.0
16/12:30pm 1.0 -7.5 0.7 98 0.1 W 35 48 19 26 1016.6 1017.5 20.8
16/12:03pm 1.1 -6.5 0.8 98 0.1 WSW 30 52 16 28 1017.0 1017.9 18.4
16/12:00pm 1.1 -5.7 0.8 98 0.1 WSW 26 39 14 21 1017.2 1018.2 18.2
16/11:44am 1.2 -6.9 0.9 98 0.1 W 33 54 18 29 1017.2 1018.2 16.6
16/11:30am 1.0 -6.2 0.7 98 0.1 W 28 44 15 24 1017.7 1018.7 15.4
16/11:00am 1.4 -8.6 1.1 98 0.1 W 43 67 23 36 1018.2 1019.2 12.6
16/10:30am 1.9 -6.9 1.6 98 0.1 W 37 57 20 31 1018.0 1019.1 8.4
16/10:15am 2.3 -4.7 2.0 98 0.1 W 28 50 15 27 1017.9 1018.9 6.8
16/10:00am 2.7 -3.5 2.4 98 0.1 W 24 37 13 20 1018.0 1019.1 6.6
16/09:38am 2.5 -5.2 2.2 98 0.1 W 32 54 17 29 1018.7 1019.7 5.8
16/09:30am 2.8 -4.9 2.5 98 0.1 W 32 44 17 24 1018.3 1019.3 4.2
16/09:00am 2.9 -4.7 2.6 98 0.1 W 32 57 17 31 1018.4 1019.4 3.8
16/08:54am 3.1 -4.5 2.8 98 0.1 W 32 57 17 31 1017.9 1018.9 3.6
16/08:30am 3.0 -5.6 2.6 97 0.2 W 37 54 20 29 1017.8 1018.8 3.4
16/08:00am 3.4 -5.1 1.0 84 1.1 W 35 46 19 25 1017.4 1018.4 3.0
16/07:30am 3.3 -7.8 -0.3 77 1.5 W 48 61 26 33 1016.8 1017.8 3.0
16/07:00am 3.8 -5.9 0.3 78 1.5 WNW 41 56 22 30 1016.4 1017.3 3.0
16/06:43am 4.0 -6.2 1.2 82 1.2 W 44 59 24 32 1016.8 1017.8 3.0
16/06:30am 4.8 -7.7 1.1 77 1.6 WNW 56 67 30 36 1015.6 1016.5 3.0
16/06:00am 4.2 -7.2 2.7 90 0.7 WNW 52 63 28 34 1015.6 1016.5 3.0
16/05:38am 3.4 -6.5 3.0 97 0.2 W 44 63 24 34 1016.8 1017.8 3.0
16/05:30am 3.6 -6.6 3.2 97 0.2 WNW 46 57 25 31 1016.2 1017.2 3.0
16/05:00am 3.1 -5.5 2.7 97 0.2 WNW 37 50 20 27 1017.1 1018.1 3.0
16/04:30am 3.7 -5.2 3.3 97 0.2 W 39 59 21 32 1016.8 1017.8 2.8
16/04:13am 4.3 -5.2 3.9 97 0.2 W 43 61 23 33 1016.7 1017.7 2.0
16/04:00am 4.5 -4.6 4.1 97 0.2 W 41 56 22 30 1016.4 1017.3 1.6
16/03:30am 4.5 -5.2 4.1 97 0.2 W 44 57 24 31 1015.9 1016.8 1.4
16/03:18am 4.6 -5.5 3.7 94 0.4 W 46 65 25 35 1016.4 1017.3 1.4
16/03:00am 5.1 -6.3 3.1 87 0.9 W 52 65 28 35 1015.5 1016.4 1.4
16/02:32am 4.7 -6.2 3.4 91 0.6 W 50 69 27 37 1015.5 1016.4 1.4
16/02:30am 4.6 -5.9 3.4 92 0.6 W 48 65 26 35 1015.7 1016.7 1.4
16/02:03am 4.5 -5.5 4.1 97 0.2 W 46 65 25 35 1017.2 1018.2 1.4
16/02:00am 4.2 -5.5 3.8 97 0.2 W 44 61 24 33 1017.7 1018.7 1.4
16/01:53am 4.0 -5.8 3.6 97 0.2 W 44 61 24 33 1017.8 1018.8 1.4
16/01:30am 4.4 -8.1 4.0 97 0.2 W 59 82 32 44 1018.4 1019.4 1.4
16/01:00am 4.8 -5.9 4.4 97 0.2 W 50 69 27 37 1019.1 1020.2 1.4
16/12:30am 4.1 -7.2 3.7 97 0.2 W 52 74 28 40 1018.9 1020.0 1.4
16/12:00am 3.9 -7.0 3.5 97 0.2 W 50 69 27 37 1019.3 1020.3 1.4
 
Date/Time
EST
Temp
°C
App
Temp
°C
Dew
Point
°C
Rel
Hum
%
Delta-T
°C
Wind Press
QNH
hPa
Press
MSL
hPa
Rain since
9am
mm
Dir  Spd
km/h
Gust
km/h
Spd
kts
Gust
kts
15/11:34pm 2.9 -9.3 0.6 85 1.0 W 54 72 29 39 1020.1 1021.2 0.4
15/11:30pm 3.2 -9.4 0.4 82 1.2 W 56 72 30 39 1020.2 1021.3 0.2
15/11:05pm 4.4 -6.5 -1.0 68 2.3 W 46 72 25 39 1020.2 1021.3 0.0
15/11:00pm 4.4 -6.6 -2.0 63 2.6 W 46 61 25 33 1020.1 1021.2 0.0
15/10:37pm 4.4 -8.6 -2.9 59 2.9 W 56 74 30 40 1019.9 1021.0 0.0
15/10:30pm 4.9 -8.7 -3.1 56 3.2 W 59 72 32 39 1019.3 1020.3 0.0
15/10:09pm 4.8 -9.6 -3.0 57 3.1 W 63 82 34 44 1018.9 1020.0 0.0
15/10:00pm 4.9 -10.6 -2.9 57 3.1 W 69 85 37 46 1018.7 1019.7 0.0
15/09:31pm 4.8 -10.3 -2.7 58 3.0 W 67 85 36 46 1018.5 1019.6 0.0
15/09:30pm 4.8 -10.3 -2.7 58 3.0 W 67 82 36 44 1018.5 1019.6 0.0
15/09:00pm 4.8 -9.5 -2.7 58 3.0 W 63 83 34 45 1019.5 1020.6 0.0
15/08:40pm 5.4 -10.7 -3.1 54 3.4 W 72 91 39 49 1018.8 1019.8 0.0
15/08:30pm 5.3 -11.5 -3.0 55 3.4 W 76 89 41 48 1018.5 1019.6 0.0
15/08:00pm 4.8 -11.9 -2.3 60 2.9 W 76 91 41 49 1018.3 1019.3 0.0
15/07:30pm 4.7 -10.8 -1.9 62 2.7 W 70 87 38 47 1018.7 1019.7 0.0
15/07:00pm 4.6 -11.3 -1.8 63 2.6 W 72 85 39 46 1018.7 1019.7 0.0
15/06:30pm 4.3 -10.3 -2.3 62 2.7 W 65 83 35 45 1019.4 1020.5 0.0
15/06:00pm 4.6 -10.8 -2.3 61 2.8 W 69 87 37 47 1018.4 1019.4 0.0
15/05:57pm 4.9 -10.6 -2.7 58 3.1 W 69 87 37 47 1018.4 1019.4 0.0
15/05:30pm 5.0 -10.1 -3.3 55 3.3 W 67 83 36 45 1018.8 1019.8 0.0
15/05:03pm 5.0 -10.9 -5.1 48 3.9 WNW 70 89 38 48 1018.4 1019.4 0.0
15/05:00pm 4.9 -11.4 -4.9 49 3.8 WNW 72 89 39 48 1018.4 1019.4 0.0
15/04:30pm 5.6 -10.2 -1.3 61 2.9 WNW 72 85 39 46 1018.5 1019.6 0.0
15/04:09pm 5.0 -10.6 -4.3 51 3.6 W 69 89 37 48 1018.7 1019.7 0.0
15/04:00pm 5.2 -10.3 -3.1 55 3.3 W 69 85 37 46 1018.8 1019.8 0.0
15/03:30pm 4.6 -9.0 -2.7 59 3.0 W 59 78 32 42 1019.6 1020.7 0.0
15/03:15pm 4.9 -7.0 -0.5 68 2.3 W 52 70 28 38 1020.0 1021.1 0.0
15/03:00pm 5.1 -7.3 1.2 76 1.7 W 56 69 30 37 1020.5 1021.6 0.0
15/02:30pm 5.0 -7.4 1.7 79 1.5 W 56 76 30 41 1020.6 1021.7 0.0
15/02:24pm 5.3 -7.0 2.0 79 1.5 W 56 76 30 41 1020.7 1021.9 0.0
15/02:00pm 4.7 -8.3 1.0 77 1.6 W 59 72 32 39 1020.4 1021.5 0.0
15/01:30pm 4.8 -8.5 1.7 80 1.4 W 61 78 33 42 1020.2 1021.3 0.0
15/01:10pm 4.5 -8.2 -0.5 70 2.1 W 56 74 30 40 1021.2 1022.4 0.0
15/01:00pm 4.3 -8.9 -0.1 73 1.9 W 59 72 32 39 1021.2 1022.4 0.0
15/12:30pm 4.5 -6.9 0.5 75 1.7 W 50 65 27 35 1022.2 1023.4 0.0
15/12:22pm 4.4 -7.2 -0.8 69 2.2 W 50 69 27 37 1022.2 1023.4 0.0
15/12:00pm 4.8 -8.4 -3.2 56 3.2 W 57 74 31 40 1022.3 1023.5 0.0
15/11:30am 4.0 -8.3 -3.0 60 2.8 W 52 74 28 40 1022.9 1024.1 0.0
15/11:28am 4.1 -7.4 -2.7 61 2.7 W 48 70 26 38 1022.9 1024.1 0.0
15/11:16am 4.6 -4.8 -0.2 71 2.1 WNW 39 61 21 33 1024.1 1025.4 0.0
15/11:00am 4.9 -3.8 2.1 82 1.3 W 37 48 20 26 1024.1 1025.4 0.0
15/10:30am 5.4 -2.4 2.6 82 1.3 W 33 43 18 23 1024.2 1025.5 0.0
15/10:08am 5.1 -3.1 2.6 84 1.2 WNW 35 54 19 29 1024.1 1025.4 0.0
15/10:00am 4.7 -3.6 2.2 84 1.1 WNW 35 44 19 24 1024.1 1025.4 0.0
15/09:30am 4.5 -5.4 1.5 81 1.3 W 43 56 23 30 1024.2 1025.5 0.0

Other formats

Comma delimited format used in spreadsheet applications
http://www.bom.gov.au/fwo/IDN60801/IDN60801.95909.axf

JavaScript Object Notation format (JSON) in row-major order
http://www.bom.gov.au/fwo/IDN60801/IDN60801.95909.json

Data quality

Most of these data are generated automatically and are frequently updated. Quality checks on data are not normally performed. It is possible for incorrect values to appear. Refer to information at About Latest Weather Observations and please check the disclaimer before using these data.